Regional Weather Roundup
Issued by NWS

Home | Current Version | Previous Version | Text Only | Print | Product List | Glossary Off
Versions: 1 2 3 4 5 6 7 8 9 10 11 12 13 14 15 16 17 18 19 20 21 22 23 24 25 26 27 28 29 30 31 32 33 34 35 36 37 38 39 40 41 42 43 44 45 46 47 48 49 50

000
ASUS43 KLOT 142308
RWRIL

ILLINOIS REGIONAL WEATHER ROUNDUP
NATIONAL WEATHER SERVICE CHICAGO/ROMEOVILLE IL
500 PM CST THU DEC 14 2017

NOTE: "FAIR" INDICATES FEW OR NO CLOUDS BELOW 12,000 FEET WITH NO
SIGNIFICANT WEATHER AND/OR OBSTRUCTIONS TO VISIBILITY.

* THESE STATIONS ARE NOT UNDER NWS QUALITY CONTROL. THEY ALSO MAY NOT
  REPORT WEATHER SUCH AS PRECIPITATION OR FOG.

ILZ001-002-007-009-015-016-024-150000-
NORTHWEST ILLINOIS

CITY           SKY/WX    TMP DP  RH WIND       PRES   REMARKS
MOLINE         CLOUDY    28  17  63 W5        30.08R WCI  23
STERLING*      CLEAR     21  11  65 CALM      30.09R
SAVANNA*       PTCLDY    24  13  62 SW3       30.08S
$$

ILZ003-004-008-010-011-017-018-150000-
NORTH CENTRAL ILLINOIS

CITY           SKY/WX    TMP DP  RH WIND       PRES   REMARKS
ROCKFORD       PTCLDY    22  10  60 SW5       30.08R WCI  16
FREEPORT*      CLEAR     19  10  69 SW8       30.08R WCI   9
ROCHELLE*      CLOUDY    20  10  66 W5        30.08R WCI  13
DE KALB*       CLEAR     20  11  66 W5        30.06S WCI  14
PERU*          CLOUDY    22  11  62 W3        30.09R
$$

ILZ005-006-012>014-019>023-150000-
NORTHEAST ILLINOIS

CITY           SKY/WX    TMP DP  RH WIND       PRES   REMARKS
CHICAGO-OHARE  PTCLDY    23   9  55 W5        30.06R WCI  17
CHICAGO-MIDWAY CLOUDY    25  10  53 NW8       30.06S WCI  16
AURORA         CLOUDY    20  11  68 NW5       30.07S WCI  13
LANSING*       CLOUDY    25  13  62 W6        30.07R WCI  18
JOLIET*        CLOUDY    27  11  51 CALM      30.08S
WAUKEGAN       CLEAR     19   9  65 CALM      30.05R
DUPAGE AIRPORT CLOUDY    21  12  68 W5        30.05S WCI  15
KANKAKEE*      CLOUDY    26  14  60 W6        30.09R WCI  19
WHEELING       CLEAR     24  11  57 NW5       30.08R WCI  18
MORRIS*        CLOUDY    23  10  56 W3        30.07S
ROMEOVILLE*    PTCLDY    22  10  60 W5        30.07S WCI  16
NORTHERLY ISL    N/A     26  12  55 NW6         N/A  WCI  20
$$

LMZ740>746-150000-
SOUTHERN LAKE MICHIGAN

STATION/POSITION SKY/WX   TEMP    WIND        PRES    VSBY  WAVE
                          AIR SEA DIR/SP/G                  HT/PER
                          (F)     (DEG/KT/KT) (MB)    (MI)  (FT/S)
BURNS HARBOR               27     280/  4/  7 1018.6R
$$

ILZ025>027-034>036-040-047-049-050-058-095>099-150000-
WEST-CENTRAL ILLINOIS

CITY           SKY/WX    TMP DP  RH WIND       PRES   REMARKS
QUINCY         CLOUDY    28  17  63 W6        30.09R WCI  22
GALESBURG*     CLOUDY    27  19  71 W5        30.08S WCI  22
MACOMB*        CLOUDY    30  18  60 W5        30.10S WCI  25
JACKSONVILLE*  CLOUDY    28  16  59 CALM      30.10R
PITTSFIELD*    CLOUDY    29  18  63 NW7       30.11R WCI  22
$$

ILZ028>032-037-038-041>044-048-051>054-059>061-150000-
CENTRAL ILLINOIS

CITY           SKY/WX    TMP DP  RH WIND       PRES   REMARKS
PONTIAC        MOCLDY    26  13  58 NW5       30.09S WCI  20
BLOOMINGTON    PTCLDY    27  15  61 N5        30.07S WCI  22
DECATUR        CLEAR     28  15  58 W6        30.08S WCI  22
PEORIA         CLOUDY    27  13  55 CALM      30.09R
LACON*         CLOUDY    25  12  57 CALM      30.09R
LINCOLN*       PTCLDY    30  16  56 W3        30.09S
SPRINGFIELD    PTCLDY    29  16  58 W5        30.09F WCI  24
TAYLORVILLE    CLOUDY    29  17  60 W6        30.09S WCI  23
$$

ILZ033-039-045-046-055>057-062-063-150000-
EAST-CENTRAL ILLINOIS

CITY           SKY/WX    TMP DP  RH WIND       PRES   REMARKS
CHAMPAIGN      MOCLDY    28  16  60 W5        30.07S WCI  23
DANVILLE*      CLOUDY    28  17  63 CALM      30.05R
RANTOUL*       MOCLDY    31  19  62 W3        30.07S
MATTOON        CLOUDY    29  18  63 NW5       30.07R WCI  24
PARIS*         CLOUDY    29  19  64 CALM      30.08S
$$

ILZ079-100>102-150000-
SOUTHWEST ILLINOIS

CITY           SKY/WX    TMP DP  RH WIND       PRES   REMARKS
ALTON          CLOUDY    30  19  64 CALM      30.09F
BELLEVILLE     CLOUDY    31  17  56 N6        30.09S WCI  26
CAHOKIA*       CLOUDY    32  18  56 NW6       30.10S WCI  26
SPARTA*        CLOUDY    31  21  65 CALM      30.11S
$$

ILZ064>066-069>071-074>076-080>082-084>086-088>090-092>094-150000-
SOUTH-CENTRAL ILLINOIS

CITY           SKY/WX    TMP DP  RH WIND       PRES   REMARKS
CARBONDALE     CLOUDY    32  21  64 NW6       30.10S WCI  26
CAIRO*         CLOUDY    34  23  64 N6        30.09F WCI  29
EFFINGHAM*     CLOUDY    32  21  64 W3        30.10S
MARION         CLOUDY    34  19  55 NW8       30.10F WCI  27
MT. VERNON     CLOUDY    33  20  58 W5        30.09F WCI  29
CENTRALIA*     CLOUDY    32  21  64 CALM      30.08F
SALEM*         CLOUDY    33  20  58 NW3       30.08F
METROPOLIS*    CLOUDY    34  22  61 CALM      30.10S
$$

ILZ067-068-072-073-078-083-087-091-150000-
SOUTHEAST ILLINOIS

CITY           SKY/WX    TMP DP  RH WIND       PRES   REMARKS
LAWRENCEVILLE  CLOUDY    32  21  64 E5        30.10R WCI  27
FLORA*         CLOUDY    33  22  62 CALM      30.10F
FAIRFIELD*     CLOUDY    32  20  61 CALM      30.09S
HARRISBURG*    CLOUDY    33  22  64 CALM      30.10S
ROBINSON*      CLOUDY    31  21  67 CALM      30.11R
CARMI*         CLOUDY    32  22  68 CALM      30.10S
$$

ABBREVIATIONS USED IN REMARKS
   TC - TEMPERATURE IN CELSIUS
  WCI - WIND CHILL INDEX
   HX - HEAT INDEX
  VSB - VISIBILITY
$$





USA.gov is the U.S. government's official web portal to all federal, state and local government web resources and services.